Weather History for PADU - January, 2014

Change the Weather History Date:

Thursday, January 9, 2014

  Actual Average Record
Temperature  
Mean Temperature 36 °F -  
Max Temperature 39 °F 36 °F 43 °F (1952)
Min Temperature 33 °F 28 °F 15 °F (2004)
Degree Days  
Heating Degree Days 29    
Moisture  
Dew Point 29 °F    
Average Humidity 74    
Maximum Humidity 93    
Minimum Humidity 57    
Precipitation  
Precipitation 0.03 in - - ()
Sea Level Pressure  
Sea Level Pressure 29.36 in    
Wind  
Wind Speed 10 mph (SSW)    
Max Wind Speed 20 mph    
Max Gust Speed 25 mph    
Visibility 9 miles    
Events Rain , Snow    
Averages and records for this station are not official NWS values.
T = Trace of Precipitation, MM = Missing Value Source: NWS Daily Summary

Daily Weather History Graph

Daily Weather History Graph

Search for Another Location

Airport or City:

Trip Planner

Search our weather history database for the weather conditions in past years. The results will help you decide how hot, cold, wet, or windy it might be!

Date:

Astronomy

Jan. 09, 2014 Rise Set
Actual Time 10:20 AM AKST 6:06 PM AKST
Civil Twilight 9:38 AM AKST 6:48 PM AKST
Nautical Twilight 8:53 AM AKST 7:33 PM AKST
Astronomical Twilight 8:10 AM AKST 8:16 PM AKST
Moon 2:00 PM AKST (1/9) 4:19 AM AKST (1/9)
Length of Visible Light 9h 10m
Length of Day
7h 45m
Waxing Gibbous, 67% of the Moon is Illuminated
Jan 9
Waxing Gibbous
Jan 15
Full
Jan 23
Last Quarter
Jan 30
New
Feb 6
First Quarter

Hourly Weather History & Observations

Time (AKST) Temp. Windchill Dew Point Humidity Pressure Visibility Wind Dir Wind Speed Gust Speed Precip Events Conditions
12:02 AM 35.6 °F 29.2 °F 30.2 °F 81% 29.30 in 5.0 mi WSW 8.1 mph - 0.00 in   Mostly Cloudy
12:56 AM 37.9 °F 29.2 °F 28.9 °F 70% 29.32 in 10.0 mi SSW 15.0 mph 24.2 mph 0.01 in Rain Light Rain
1:56 AM 36.0 °F 27.1 °F 30.0 °F 79% 29.34 in 7.0 mi SW 13.8 mph 25.3 mph N/A Rain Light Rain
2:56 AM 37.9 °F 30.5 °F 28.0 °F 68% 29.34 in 10.0 mi SSW 11.5 mph 18.4 mph N/A   Mostly Cloudy
3:35 AM 35.6 °F 27.1 °F 30.2 °F 81% 29.34 in 4.0 mi WSW 12.7 mph 18.4 mph N/A Snow Light Snow
3:44 AM 35.6 °F 27.5 °F 30.2 °F 81% 29.34 in 6.0 mi SSW 11.5 mph - N/A Snow Light Snow
3:56 AM 35.1 °F 26.9 °F 30.0 °F 82% 29.36 in 10.0 mi South 11.5 mph 20.7 mph N/A Rain Light Rain
4:30 AM 35.6 °F 29.2 °F 30.2 °F 81% 29.35 in 9.0 mi SW 8.1 mph 18.4 mph N/A Rain Light Rain
4:39 AM 35.6 °F 26.6 °F 30.2 °F 81% 29.36 in 4.0 mi WSW 13.8 mph 25.3 mph N/A Rain Heavy Rain
4:45 AM 33.8 °F 27.0 °F 30.2 °F 87% 29.36 in 2.5 mi WSW 8.1 mph 25.3 mph N/A Rain Light Rain
4:53 AM 35.6 °F 28.6 °F 30.2 °F 81% 29.36 in 5.0 mi WSW 9.2 mph 17.3 mph N/A   Overcast
4:56 AM 35.1 °F 26.9 °F 30.0 °F 82% 29.38 in 7.0 mi SSW 11.5 mph 18.4 mph N/A   Overcast
5:22 AM 35.6 °F 28.6 °F 28.4 °F 75% 29.35 in 10.0 mi South 9.2 mph - 0.00 in Rain Light Rain
5:56 AM 37.9 °F 32.1 °F 27.0 °F 65% 29.38 in 10.0 mi WSW 8.1 mph 20.7 mph 0.00 in Rain Light Rain
6:14 AM 37.4 °F 32.1 °F 26.6 °F 65% 29.36 in 10.0 mi West 6.9 mph - 0.00 in   Overcast
6:56 AM 39.0 °F 31.4 °F 25.0 °F 57% 29.37 in 10.0 mi WSW 12.7 mph 20.7 mph 0.00 in   Mostly Cloudy
7:56 AM 37.9 °F 29.6 °F 24.1 °F 57% 29.38 in 10.0 mi SW 13.8 mph - N/A   Partly Cloudy
8:31 AM 37.4 °F 27.2 °F 26.6 °F 65% 29.37 in 6.0 mi SSW 19.6 mph 25.3 mph 0.00 in Snow Light Snow
8:49 AM 35.6 °F 27.5 °F 28.4 °F 75% 29.37 in 9.0 mi SSW 11.5 mph - 0.00 in Snow Light Snow
8:56 AM 36.0 °F 27.5 °F 28.9 °F 76% 29.39 in 10.0 mi SSW 12.7 mph - 0.00 in Snow Light Snow
8:58 AM 35.6 °F 26.6 °F 28.4 °F 75% 29.37 in 10.0 mi SW 13.8 mph - 0.00 in Snow Light Snow
9:47 AM 35.6 °F 32.8 °F 28.4 °F 75% 29.38 in 10.0 mi South 3.5 mph - 0.00 in   Scattered Clouds
9:56 AM 36.0 °F 32.1 °F 27.0 °F 70% 29.40 in 10.0 mi South 4.6 mph - 0.00 in   Scattered Clouds
9:59 AM 37.4 °F 34.9 °F 26.6 °F 65% 29.38 in 10.0 mi South 3.5 mph - N/A   Scattered Clouds
10:52 AM 35.6 °F 28.0 °F 28.4 °F 75% 29.39 in 10.0 mi SSE 10.4 mph - 0.00 in Snow Light Snow
10:56 AM 36.0 °F 30.3 °F 28.0 °F 73% 29.41 in 10.0 mi South 6.9 mph - 0.00 in Snow Light Snow
11:47 AM 35.6 °F 28.6 °F 28.4 °F 75% 29.40 in 10.0 mi SSE 9.2 mph - 0.00 in   Scattered Clouds
11:56 AM 36.0 °F 29.0 °F 28.9 °F 76% 29.40 in 10.0 mi SE 9.2 mph - 0.00 in   Scattered Clouds
11:59 AM 35.6 °F 29.2 °F 28.4 °F 75% 29.39 in 10.0 mi SE 8.1 mph - N/A   Scattered Clouds
12:42 PM 37.4 °F 32.1 °F 26.6 °F 65% 29.38 in 10.0 mi South 6.9 mph - 0.00 in Snow Light Snow
12:46 PM 37.4 °F 30.8 °F 26.6 °F 65% 29.38 in 9.0 mi SSE 9.2 mph - 0.00 in Snow Light Snow
12:53 PM 35.6 °F 29.9 °F 28.4 °F 75% 29.38 in 9.0 mi South 6.9 mph - 0.00 in Snow Light Snow
12:56 PM 36.0 °F 29.6 °F 28.9 °F 76% 29.40 in 10.0 mi South 8.1 mph - 0.00 in Snow Light Snow
2:56 PM 37.0 °F 31.0 °F 30.0 °F 76% 29.35 in 5.0 mi South 8.1 mph 17.3 mph 0.00 in Snow Light Snow
3:31 PM 35.6 °F 29.2 °F 30.2 °F 81% 29.31 in 10.0 mi SSW 8.1 mph - 0.00 in   Scattered Clouds
3:56 PM 37.0 °F 30.4 °F 30.9 °F 79% 29.33 in 10.0 mi SW 9.2 mph - 0.00 in   Mostly Cloudy
4:07 PM 37.4 °F 30.3 °F 30.2 °F 75% 29.32 in 5.0 mi WSW 10.4 mph - 0.00 in Rain , Snow Light Rain
4:10 PM 35.6 °F 29.2 °F 32.0 °F 87% 29.32 in 3.0 mi WSW 8.1 mph - 0.01 in Snow Snow
4:29 PM 33.8 °F 29.6 °F 32.0 °F 93% 29.32 in 7.0 mi WSW 4.6 mph - 0.02 in Rain Light Rain
4:56 PM 35.1 °F 29.3 °F 32.0 °F 89% 29.34 in 10.0 mi South 6.9 mph - 0.02 in   Mostly Cloudy
5:56 PM 39.0 °F 29.9 °F 28.9 °F 67% 29.34 in 10.0 mi SW 17.3 mph 25.3 mph N/A   Mostly Cloudy
6:56 PM 37.9 °F 34.4 °F 30.0 °F 73% 29.37 in 10.0 mi West 4.6 mph - N/A   Mostly Cloudy
7:56 PM 37.0 °F 32.4 °F 27.0 °F 67% 29.37 in 10.0 mi South 5.8 mph - N/A   Scattered Clouds
8:56 PM 37.0 °F 34.5 °F 27.0 °F 67% 29.37 in 10.0 mi SE 3.5 mph - N/A   Overcast
9:56 PM 37.0 °F 32.4 °F 28.0 °F 70% 29.37 in 10.0 mi South 5.8 mph - N/A   Partly Cloudy
10:56 PM 37.9 °F 32.7 °F 28.0 °F 68% 29.37 in 10.0 mi South 6.9 mph - N/A   Scattered Clouds
11:56 PM 37.0 °F 33.3 °F 27.0 °F 67% 29.38 in 10.0 mi South 4.6 mph - N/A   Mostly Cloudy